RH
40 50 90 87 88 87 89 87 85 85 84 85 84 83 82 81 81 84 82 82 79 72 70 68 68 69 68 67 66 71 72 72 73 73 74 69 69 74 80 81 80 45 81
42 48 91 88 88 88 89 88 85 84 82 83 84 82 82 83 84 82 82 79 73 69 68 66 69 69 74 71 77 79 79 80 80 78 77 71 68 71 77 79 78 61 80
38 45 52 90 89 91 91 88 85 82 82 80 80 82 81 83 84 81 82 77 71 71 68 70 70 71 76 81 78 80 83 83 84 81 75 36 33 71 73 80 79 78 76
39 43 48 90 89 89 90 92 91 88 86 86 84 82 79 79 83 78 80 79 75 72 70 71 74 78 82 82 82 78 80 82 82 78 44 36 33 72 72 77 78 79 77
40 43 56 88 87 87 88 88 88 89 91 90 87 83 80 79 78 78 81 80 75 72 70 74 78 82 85 84 81 79 80 82 80 66 40 44 42 57 73 73 74 81 82
35 36 71 87 84 83 82 81 85 87 90 89 89 88 86 84 83 84 83 78 77 76 78 81 82 83 82 86 80 78 80 83 85 41 45 53 54 68 70 73 80 81 81
31 35 42 88 83 81 77 80 84 85 87 88 87 87 85 83 83 82 78 78 80 80 84 80 84 81 82 81 82 84 86 83 50 40 40 47 52 79 73 71 80 81 84
32 40 40 77 83 82 80 83 86 87 87 89 89 89 88 88 87 86 87 86 86 86 85 86 87 87 89 89 86 85 87 86 55 45 47 46 76 78 75 73 80 80 81
31 34 37 40 60 83 84 84 87 88 87 88 87 88 89 88 87 87 86 84 83 84 84 84 85 85 83 82 79 80 82 81 51 44 44 43 79 72 70 75 77 81 83
38 35 40 42 40 44 44 81 85 87 88 88 85 86 87 86 83 80 80 82 82 82 82 83 83 83 83 82 80 78 77 72 45 46 42 48 77 72 73 79 78 77 81
40 46 46 42 46 46 42 53 76 84 87 89 81 85 79 45 49 52 81 81 79 80 80 80 80 79 75 78 78 76 78 38 44 38 37 79 77 70 68 71 73 77 77
44 44 44 53 52 51 36 46 47 46 43 48 49 55 44 55 54 54 67 80 77 77 77 78 79 78 73 34 39 68 37 44 41 41 38 83 78 72 70 70 71 72 77
37 39 45 55 58 56 44 38 34 35 40 44 56 56 54 56 54 51 49 46 48 65 41 46 46 38 46 45 38 42 40 44 34 33 50 67 58 56 59 62 67 70 71
33 40 46 53 60 61 43 37 37 38 39 42 44 61 57 50 53 54 46 45 49 42 49 44 42 53 53 48 45 44 42 37 30 31 42 61 61 56 54 55 58 62 70
36 39 46 54 60 54 55 43 47 48 42 47 46 48 55 50 52 49 47 44 42 41 41 44 43 43 44 40 36 36 32 33 35 26 25 58 63 64 60 59 61 63 66
36 40 46 54 58 48 43 50 47 47 42 44 42 43 58 56 51 46 42 38 36 36 37 41 42 43 37 37 36 37 33 30 30 33 23 34 63 65 62 61 65 64 62
32 37 47 53 49 46 44 43 39 35 42 38 37 46 51 54 49 49 41 39 35 38 48 49 48 45 42 34 35 33 33 36 31 35 28 26 38 70 64 60 58 57 57
32 36 42 44 43 44 41 38 34 32 36 34 36 38 45 49 51 50 41 40 39 42 41 42 42 40 40 37 34 28 28 29 32 34 29 29 26 22 60 62 58 57 57
28 32 39 45 39 39 40 36 40 43 38 31 35 32 37 43 46 47 41 40 44 42 41 42 42 44 43 35 31 29 30 29 30 25 30 35 35 30 24 63 60 59 54
33 37 41 40 39 42 36 38 31 30 28 30 28 28 34 34 40 43 40 43 44 44 43 41 46 42 41 40 28 25 29 30 30 30 31 28 31 34 33 33 33 37 54
39 38 37 37 40 32 30 29 27 28 26 26 26 33 38 36 39 44 39 41 42 44 47 51 48 51 48 43 45 38 34 34 40 33 31 29 30 31 33 34 29 23 30
35 34 31 28 29 27 24 27 31 34 30 32 32 34 33 39 38 36 41 40 41 41 47 50 54 52 50 46 48 43 41 34 32 35 34 32 38 30 32 33 31 31 30
35 34 29 30 32 37 36 29 30 30 31 28 33 31 30 34 35 38 40 43 45 44 42 46 49 52 52 49 50 50 46 43 35 29 41 36 39 38 34 31 31 31 31
41 38 35 34 33 35 39 34 40 34 35 36 34 31 33 36 36 36 40 43 47 44 47 47 43 52 53 54 48 47 51 48 48 49 42 40 38 38 40 34 30 33 31
42 42 40 35 36 37 39 40 36 39 36 35 38 44 40 34 33 33 41 47 50 48 52 60 60 59 55 58 54 59 66 63 54 55 48 50 39 35 32 34 36 35 34
41 42 40 35 34 38 40 42 45 48 50 45 41 38 32 32 31 36 42 49 53 55 58 60 70 74 75 74 77 82 85 87 79 85 76 59 60 52 40 40 38 37 36
Wind_Speed
6 10 6 7 5 7 8 6 6 3 3 7 7 8 7 6 9 11 11 11 10 10 9 5 2 2 3 6 6 7 6 4 6 6 5 4 5 5 5 4 3 9 6
8 7 5 5 5 6 10 8 7 5 3 7 8 8 7 9 13 14 14 11 11 9 7 7 5 4 6 7 9 9 8 7 6 5 4 5 4 4 4 3 7 11 6
9 8 9 4 8 8 8 5 7 5 5 7 8 9 10 12 12 11 8 9 6 8 8 6 6 4 8 8 9 9 8 7 6 4 4 8 2 4 1 1 2 4 4
7 7 7 6 9 10 10 11 11 9 7 8 9 9 10 8 8 8 9 5 6 6 6 6 7 7 9 8 6 7 7 6 5 4 8 3 3 4 2 3 2 4 5
7 6 10 7 8 9 10 10 11 10 10 9 7 6 7 5 5 5 6 5 5 4 4 7 8 8 8 4 4 3 3 3 5 10 5 4 5 4 3 3 7 8 6
9 7 9 6 7 7 8 10 9 8 8 9 9 9 9 8 6 6 5 5 4 5 6 8 9 7 4 3 4 5 4 3 7 6 5 4 6 5 3 4 6 8 6
9 8 9 4 5 7 8 8 9 8 9 8 8 9 9 8 7 7 5 4 4 5 5 6 6 5 5 3 3 3 2 3 9 7 6 5 5 4 8 3 8 11 10
9 7 9 7 5 5 6 6 6 6 7 7 8 8 8 9 9 8 7 7 7 7 6 7 6 6 7 7 7 6 5 7 6 5 4 5 8 5 6 3 5 7 4
7 8 7 8 8 5 4 5 4 5 6 7 8 8 8 7 7 7 7 7 7 7 6 6 7 7 7 6 6 5 4 5 6 3 3 3 8 6 4 4 2 6 7
7 7 6 5 5 3 6 5 3 4 5 5 6 6 5 5 4 4 4 7 5 5 6 6 7 6 5 4 4 4 4 8 5 4 3 6 7 8 8 5 2 3 6
6 6 5 5 4 2 2 5 5 4 3 3 5 4 6 1 1 2 8 4 4 4 4 4 4 3 2 4 3 3 9 4 6 4 4 8 7 6 5 6 7 5 5
10 9 8 6 5 3 2 2 2 1 1 2 2 2 2 2 3 5 1 2 2 1 3 2 2 3 8 4 3 8 4 5 6 5 3 6 7 7 5 5 5 6 6
10 8 7 6 5 4 1 1 2 1 1 1 2 4 3 4 3 3 4 3 3 2 4 4 4 4 5 5 5 5 4 6 4 4 6 5 7 7 6 6 5 4 5
10 9 7 6 4 4 4 3 2 3 2 3 3 4 3 4 3 4 4 5 4 4 6 5 4 5 6 5 6 6 6 6 4 3 5 2 5 6 6 5 5 4 4
10 8 8 7 6 5 4 2 3 3 3 4 4 4 5 5 4 5 5 5 6 6 6 6 6 6 6 6 5 6 6 5 5 4 2 1 3 3 3 4 4 5 5
9 9 9 8 8 6 5 3 2 2 3 3 4 4 5 6 5 6 6 6 6 5 6 6 6 7 6 5 6 6 7 6 6 4 4 6 0 3 4 5 5 5 5
7 8 9 9 8 6 5 4 3 2 3 3 3 5 6 7 7 7 7 6 7 6 8 8 8 7 8 7 8 7 7 8 7 7 6 5 9 5 2 5 5 6 6
8 7 8 8 8 7 4 3 2 2 3 3 3 4 6 7 8 9 8 8 8 7 8 8 8 8 8 8 7 8 7 7 8 8 8 6 6 5 7 4 5 6 6
7 8 9 9 8 6 3 3 3 3 5 3 4 4 5 7 8 9 9 10 10 9 9 9 9 9 10 9 9 9 9 8 8 8 9 9 8 7 5 8 4 5 4
2 3 6 6 3 1 2 3 4 4 4 4 4 4 6 6 8 9 9 11 10 10 11 11 12 11 11 11 11 10 10 10 10 10 10 10 10 9 8 6 8 9 6
5 4 4 4 5 2 1 3 3 3 4 5 5 7 8 8 9 10 9 11 11 11 13 14 13 14 12 12 11 12 12 13 13 12 11 10 12 11 10 8 6 4 7
9 8 6 6 5 4 2 3 3 5 5 5 4 8 8 10 10 9 10 10 12 11 13 13 14 12 13 12 13 13 14 13 14 13 12 11 13 11 10 9 6 6 5
9 7 6 7 8 8 6 3 3 3 4 5 7 7 9 10 11 11 11 11 12 12 11 13 12 15 13 12 16 10 11 14 13 10 12 11 13 10 10 8 8 7 6
10 10 10 9 8 7 7 5 6 6 6 7 8 8 11 11 11 12 13 12 11 10 12 11 10 11 13 13 11 11 16 17 16 12 7 12 12 12 11 7 8 8 7
9 8 7 6 7 7 6 6 5 5 4 5 6 12 13 11 12 12 11 12 10 8 8 7 7 8 7 9 10 9 7 7 12 13 14 5 10 10 9 8 8 8 8
7 6 6 7 6 7 7 7 8 9 8 7 10 11 11 11 11 13 11 9 6 5 4 6 8 8 7 7 7 8 7 5 5 5 6 12 6 7 7 8 8 9 9
Wind_Direction
136 110 66 77 78 110 138 137 135 125 109 105 116 141 140 135 115 95 96 84 79 75 69 50 59 10 25 26 31 34 21 7 22 39 25 25 57 78 78 68 241 117 117
121 114 119 125 91 105 144 156 141 129 84 75 73 76 89 97 92 87 83 71 58 48 39 23 360 349 17 23 31 44 37 25 19 32 350 225 112 70 80 23 7 94 127
134 139 147 92 69 58 82 94 100 105 95 77 69 70 79 95 96 98 86 72 52 44 19 15 14 13 54 56 44 38 39 27 17 3 286 264 84 56 91 130 46 113 145
130 131 119 94 71 57 51 51 51 60 71 58 50 53 67 82 101 87 89 63 39 24 359 13 27 30 59 48 34 28 32 20 360 311 247 296 101 102 292 213 252 179 177
126 123 92 75 74 73 69 70 71 69 66 72 83 83 77 82 63 75 62 45 37 22 5 13 15 51 35 35 51 53 26 7 335 269 282 290 311 95 278 297 238 209 196
131 125 109 88 88 96 93 85 80 81 79 69 68 75 84 88 90 79 71 62 52 36 29 31 34 36 19 12 13 14 -0 343 286 256 251 214 271 58 274 312 279 278 228
126 115 130 121 114 90 90 87 91 89 86 87 82 77 77 76 70 64 61 65 59 34 28 42 44 52 65 74 65 47 14 289 274 276 284 260 242 335 284 255 282 290 230
133 143 136 139 113 116 106 102 95 103 97 91 91 97 94 87 83 79 76 77 72 68 67 61 69 72 69 65 57 44 24 331 241 295 292 280 20 303 288 227 268 309 251
144 150 145 144 140 136 111 93 87 81 83 77 75 75 76 72 73 69 65 62 60 60 64 74 80 80 77 74 64 49 25 326 299 322 295 245 17 332 302 250 305 5 311
154 158 159 148 131 117 126 103 92 86 82 87 91 87 95 119 111 116 155 89 90 84 68 61 63 67 66 49 32 12 312 263 294 276 254 44 346 341 355 5 36 305 321
179 181 177 164 151 120 86 107 176 145 118 147 150 122 203 6 40 205 67 68 61 66 67 69 69 72 174 147 120 326 287 313 295 284 280 42 333 332 345 353 352 3 332
184 190 182 189 174 178 202 217 155 106 345 3 13 0 299 351 7 326 93 147 164 176 177 161 152 220 237 294 209 207 280 318 277 301 343 16 325 321 323 332 342 344 6
185 191 192 183 199 231 201 275 225 240 276 239 290 303 3 329 339 296 313 276 302 178 281 254 233 272 318 304 304 296 290 259 276 274 70 354 333 328 327 322 324 333 351
191 200 188 196 193 225 270 256 317 274 294 285 342 316 298 295 327 319 321 323 292 312 317 292 297 306 292 283 282 287 279 280 269 260 109 12 332 330 330 330 335 344 358
207 205 205 194 203 227 243 286 283 279 268 329 301 312 297 302 311 307 317 305 310 309 296 293 295 294 297 280 279 271 266 266 260 268 245 90 346 27 33 20 6 4 -0
221 218 209 199 198 203 228 231 269 270 294 282 309 319 302 292 301 303 299 298 290 284 289 285 286 292 283 272 255 252 259 264 245 246 248 149 137 19 54 66 72 48 27
233 229 213 201 197 205 212 225 255 232 274 281 295 299 293 290 295 294 292 292 295 294 281 268 269 264 269 257 253 246 242 232 236 235 238 241 159 161 73 71 71 62 51
250 228 215 195 198 200 220 230 256 261 261 265 273 284 288 284 285 288 286 287 290 287 282 280 275 269 262 269 270 263 242 246 232 227 231 235 228 214 167 124 101 87 62
259 236 214 196 197 202 197 267 267 262 252 267 281 280 294 291 286 283 285 287 288 279 274 270 271 267 272 262 258 253 254 251 238 238 237 225 229 244 233 148 148 113 68
274 237 189 187 167 223 293 269 265 264 281 276 277 301 311 305 298 289 287 288 285 280 278 272 271 270 263 271 270 262 247 242 240 235 231 226 218 222 229 225 190 164 148
76 132 123 142 55 346 314 312 290 289 293 289 312 348 329 340 327 316 300 295 292 281 278 281 275 263 261 257 265 257 253 246 243 243 231 232 220 213 212 212 241 253 167
70 70 90 86 63 40 12 341 318 324 328 334 311 334 343 347 332 316 311 300 296 291 283 278 275 273 265 255 258 260 261 254 229 229 238 229 230 222 214 217 228 233 242
53 53 63 66 66 54 23 18 349 290 283 329 333 321 340 330 323 314 306 298 293 287 284 285 278 275 269 261 248 241 269 247 253 237 206 231 228 220 226 215 232 228 226
59 64 65 56 54 45 20 17 6 347 333 342 325 330 321 320 315 307 303 298 293 290 289 287 286 284 285 278 270 258 249 272 276 271 212 210 220 217 214 232 233 233 241
64 59 46 42 28 28 16 4 343 333 315 307 317 316 298 305 309 311 311 305 299 297 309 320 309 302 302 299 289 306 315 297 266 258 264 202 215 220 222 219 239 253 250
72 50 27 6 13 9 7 3 349 332 325 320 325 316 317 321 322 318 322 309 313 329 358 31 46 44 40 30 20 14 15 354 360 356 295 279 291 234 253 247 238 248 252